Weather Roundup
Issued by NWS Springfield, MO

Home | Current Version | Previous Version | Text Only | Print | Product List | Glossary On
Versions: 1 2 3 4 5 6 7 8 9 10 11 12 13 14 15 16 17 18 19 20 21 22 23 24 25 26 27 28 29 30 31 32 33 34 35 36 37 38 39 40 41 42 43 44 45 46 47 48 49 50
338
NZUS99 KSGF 082107
HRRSGF

HOURLY WEATHER
NATIONAL WEATHER SERVICE SPRINGFIELD MO
300 PM CST THU DEC 08 2016

......SGF CWA......

CITY           SKY/WX    TMP DP  RH WIND       PRES   REMARKS
SPRINGFIELD    SUNNY     29  13  51 NW13      30.55S WCI  19
JOPLIN         SUNNY     29  13  51 NW13      30.62S WCI  19
WEST PLAINS    SUNNY     33  11  39 W15G24    30.50S WCI  23
ROLLA          FLURRIES  28  12  51 W14G25    30.49R WCI  17
OSAGE BEACH    SUNNY     31  14  49 W13G21    30.55R WCI  21
BRANSON        MOSUNNY   32   9  37 NW10      30.54F WCI  24

......SURROUNDING SGF CWA......

CITY           SKY/WX    TMP DP  RH WIND       PRES   REMARKS
CHANUTE        SUNNY     29  15  56 N12       30.63S WCI  19
PARSONS        SUNNY     31  12  45 NW10      30.64F WCI  22
COFFEYVILLE    SUNNY     32  12  43 NW13      30.65F WCI  22
EMPORIA        SUNNY     27  11  51 NW13      30.62F WCI  16
GROVE OK       SUNNY     32  14  47 NW9       30.64S WCI  24
ROGERS AR      SUNNY     30  10  43 NW12      30.57S WCI  20
SILOAM SPRINGS SUNNY     30  10  43 N12       30.58S WCI  21
HARRISON AR    SUNNY     31   9  39 NW13G21   30.53S WCI  21
NEAR YELLVILLE SUNNY     34   7  32 NW13      30.53R WCI  25

......KANSAS AND MISSOURI......

CITY           SKY/WX    TMP DP  RH WIND       PRES   REMARKS
KANSAS CTY INT MOSUNNY   25   9  50 NW13      30.59S WCI  14
DOWNTOWN KC    SUNNY     27  11  51 W10       30.61S WCI  17
COLUMBIA       SUNNY     27  11  51 NW13      30.53R WCI  16
SEDALIA        PTSUNNY   26  13  57 W15       30.58R WCI  14
ST JOSEPH      SUNNY     25  10  53 NW16      30.62R WCI  12
ST LOUIS       MOSUNNY   30  11  45 W21G26    30.49R WCI  17
SPIRIT OF STL  MOSUNNY   30  13  49 NW15      30.51R WCI  19
KIRKSVILLE     SUNNY     25  10  53 W17       30.52R WCI  12
WICHITA        MOSUNNY   30   7  37 N12       30.63F WCI  20
TOPEKA         SUNNY     27  12  53 NW12      30.63F WCI  17
OLATHE         MOSUNNY   25  11  55 NW13      30.59F WCI  14

......TENNESSEE......

CITY           SKY/WX    TMP DP  RH WIND       PRES   REMARKS
MEMPHIS        CLOUDY    37  17  44 N10       30.50R WCI  30
NASHVILLE      PTSUNNY   38  13  35 NW8       30.41R WCI  32

......ARKANSAS.......

CITY           SKY/WX    TMP DP  RH WIND       PRES   REMARKS
FAYETTEVILLE   SUNNY     31  11  43 NW10      30.57S WCI  22
FT SMITH       SUNNY     39   7  26 NW12      30.60S WCI  32
LITTLE ROCK    PTSUNNY   39  15  37 N7        30.55R WCI  34

......OKLAHOMA.......

CITY           SKY/WX    TMP DP  RH WIND       PRES   REMARKS
TULSA          MOSUNNY   35   8  32 NW9G20    30.64F WCI  28
PONCA CITY     SUNNY     32   5  32 N13       30.65F WCI  22
MCALESTER      SUNNY     37   8  30 N16       30.62F WCI  28
OKLAHOMA CITY  MOSUNNY   33   7  33 N15       30.63F WCI  23

......IOWA............

CITY           SKY/WX    TMP DP  RH WIND       PRES   REMARKS
DES MOINES     MOSUNNY   25  10  53 NW20      30.51R WCI  11
QUAD CITIES    CLOUDY    22  12  65 W21G26    30.44R WCI   6

......ILLINOIS........

CITY           SKY/WX    TMP DP  RH WIND       PRES   REMARKS
QUINCY         PTSUNNY   25  12  58 NW18      30.49R WCI  11
CHICAGO        FLURRIES  21  13  71 W14G25    30.32R WCI   8




USA.gov is the U.S. government's official web portal to all federal, state and local government web resources and services.